This is the latest recevied weather packets stored in our database for station/object DB2YI-13. If no packets are shown the sender has not sent any weather packets the latest 10 day(s).
| Time | Temp. | Humidity | Pressure | Rain* | Wind** | Luminosity | Snow |
|---|---|---|---|---|---|---|---|
| 1777989001 | 19.44° C | 60% | - | 0 mm | - | - | - |
| 1777988402 | 20° C | 61% | - | 0 mm | - | - | - |
| 1777987802 | 20° C | 62% | - | 0 mm | - | - | - |
| 1777987201 | 19.44° C | 65% | - | 0 mm | - | - | - |
| 1777986601 | 19.44° C | 65% | - | 0 mm | - | - | - |
| 1777986004 | 19.44° C | 66% | - | 0 mm | - | - | - |
| 1777985401 | 19.44° C | 67% | - | 0 mm | - | - | - |
| 1777984802 | 18.89° C | 67% | - | 0 mm | - | - | - |
| 1777984201 | 18.89° C | 67% | - | 0 mm | - | - | - |
| 1777983603 | 18.89° C | 67% | - | 0 mm | - | - | - |
| 1777983005 | 18.89° C | 67% | - | 0 mm | - | - | - |
| 1777982401 | 18.89° C | 67% | - | 0 mm | - | - | - |
| 1777981803 | 18.89° C | 68% | - | 0 mm | - | - | - |
| 1777981203 | 18.89° C | 67% | - | 0 mm | - | - | - |
| 1777980601 | 19.44° C | 66% | - | 0 mm | - | - | - |
| 1777980001 | 19.44° C | 65% | - | 0 mm | - | - | - |
| 1777979401 | 18.89° C | 65% | - | 0 mm | - | - | - |
| 1777978801 | 19.44° C | 65% | - | 0 mm | - | - | - |
| 1777978202 | 19.44° C | 65% | - | 0 mm | - | - | - |
| 1777977601 | 19.44° C | 65% | - | 0 mm | - | - | - |
| 1777977002 | 19.44° C | 65% | - | 0 mm | - | - | - |
| 1777976401 | 19.44° C | 67% | - | 0 mm | - | - | - |
| 1777975801 | 18.89° C | 69% | - | 0 mm | - | - | - |
| 1777975201 | 18.33° C | 69% | - | 0 mm | - | - | - |
| 1777974602 | 18.89° C | 73% | - | 0 mm | - | - | - |
* Rain latest hour (hover to see other rain measurements)
** Current wind speed in m/s (hover to see current wind gust speed)